STARLINK-32742, 62605

Orbit data source: Space-Track

STARLINK-32742, 62605 is a payload satellite owned by SpaceX/Seattle (US) in LEO that was launched on Mon, 13 Jan 2025 UTC via an FALCON 9 launch vehicle from the Air Force Eastern Test Range (AFETR). Payload-class satellites include a variety of spacecraft equipped with specific instruments for various scientific and technological missions. These include communications satellites like Starlink; space stations such as the ISS; scientific satellites like the Hubble; Earth observation satellites from companies like Planet Labs, Umbra, and HawkEye 360; GPS; miniature CubeSats for education and research; and military/defense satellites.

Loading next visibility...
Identifier
62605, 2025-008U
Orbit
LEO
Country
Flag of USUS
Related business
Manufacturer
SpaceX/Seattle
Mission
Operational Commercial Communications
Bus & Motor
STARLINK V2M, Unknown motor
Mass
730 kg wet, ~700 kg dry
Launch date (UTC)
2025-01-13 (10 months ago)
Launch vehicle
FALCON 9
Launch site
Air Force Eastern Test Range (AFETR)
Object type
Payload
Rocket body
Debris
Shape & HBR
Box + 2 Pan, 17.7 m
Radar Cross Section
33.884 m², Large (>1 m²)

Expand to show TLE details & history
Last TLE update: 2 days ago

TLE from 2 days ago
0 STARLINK-32742
1 62605U 25008U   25306.22517843  .00025143  00000-0  91964-3 0  9999
2 62605  43.0005 277.4831 0000579 261.1867  98.8919 15.27596086 46123
Epoch: 2025-11-02T05:24Z
TLE epoch observation values (Epoch: 2025-11-02T05:24:15.416Z)
Latitude
-0.00002°
Longitude
154.67488°
Altitude
482.838 km
Speed
7.626 km/s
True Right ascension
18h 29m 55s
True Declination
0° 00' 00"
Sunlit
Object was in daylight at epoch
Visualization orbit readout
Latitude
Unknown
Longitude
Unknown
Altitude
Unknown
Speed
Unknown
Apparent Right ascension
Unknown
Apparent Declination
Unknown
Sunlit
N/A
Visualization observer readout
Local Sidereal Time
14:17:31
Azimuth
Unknown
Elevation
Unknown
Doppler factor
Unknown
Orbital elements
Apogee altitude
485.343 km
Perigee altitude
484.549 km
Semi-major axis
6,863.083 km
Eccentricity
0.00006
Inclination
43.0005°
RAAN
277.4831°
Arg. of periapsis
261.1867°
True anomaly
98.89846°
Mean anomaly
98.8919°
Eccentric anomaly
98.89518°
Mean motion
3.81737 °/min
Orbital period
94.31 mins
BSTAR
0.00091964
Loading maneuver chart data...
Computing Atmospheric mass density...
Loading historical data...
Loading historical data...
Loading historical data...
Loading historical data...
Loading historical data...
Loading historical data...
Loading historical data...

Documentation

Showing up to 5 results
|